Location: ICStars Ranch
(38.8297°N, 93.7687°W)
Time: 09:02:29
(UTC-05:00)

Daily predictions for brighter satellites

Satellite Brightness Start Highest point End
(mag) Time Altitude Azimuth Time Altitude Azimuth Time Altitude Azimuth
Cosmos 1605 Rocket 4.4 20:05:44 10° SSE 20:11:38 43° E 20:17:29 10° NNE
Tiangong 1 2.2 20:12:01 10° WNW 20:14:58 37° N 20:17:52 10° ENE
Cosmos 1025 Rocket 3.6 20:10:59 10° NNW 20:15:18 65° W 20:19:34 10° S
Spot 2 Rocket 3.6 20:10:54 10° SSE 20:16:00 90° WSW 20:21:07 10° NNW
NOSS 7 (H) 4.3 20:12:57 10° SSW 20:16:17 63° ESE 20:19:37 10° NE
RESURS DK-1 4.5 20:14:48 10° NNE 20:16:38 12° NE 20:18:26 10° ENE
Cosmos 1697 Rocket 3.6 20:12:45 10° SSE 20:17:22 26° ESE 20:21:58 10° NE
Meteor 2-15 4.4 20:12:40 10° N 20:18:43 68° E 20:24:43 10° SSE
Cosmos 2208 Rocket 4.1 20:13:33 10° SSW 20:18:52 85° ESE 20:24:18 10° NNE
METEOR-M 4.2 20:14:49 10° SSE 20:20:10 87° WSW 20:25:33 10° NNW
Meteor 2-14 Rocket 4.5 20:16:10 10° S 20:22:19 82° E 20:28:29 10° N
BREEZE-M DEB (TANK) 3.8 20:19:58 10° SW 20:23:25 69° SE 20:34:29 10° NE
Iridium 4 Rocket 4.3 20:19:58 10° NNE 20:24:04 26° E 20:27:53 10° SE
Meteor 2-15 Rocket 4.5 20:19:16 10° N 20:25:19 65° E 20:31:20 10° SSE
Cosmos 1626 Rocket 4.3 20:21:24 10° NNE 20:25:20 32° ENE 20:29:14 10° SE
Cosmos 1892 Rocket 3.8 20:22:14 10° N 20:26:43 81° W 20:31:11 10° S
Cosmos 2278 3.8 20:21:29 10° SSW 20:27:10 89° WNW 20:32:54 10° NNE
Cosmos 1455 Rocket 3.0 20:24:14 10° S 20:28:33 80° E 20:32:55 10° N
Cosmos 2084 4.4 20:26:05 10° NNW 20:29:41 30° NE 20:33:09 12° ESE
Cosmos 1570 Rocket 4.5 20:26:44 10° SSW 20:31:59 68° WNW 20:37:15 10° NNE
Meteor 2-4 Rocket 4.5 20:27:13 10° NNW 20:33:00 61° W 20:38:50 10° S
Cosmos 1602 Rocket 4.0 20:30:57 10° N 20:35:11 41° ENE 20:39:21 10° SSE
Cosmos 220 Rocket 4.2 20:34:59 10° N 20:39:05 48° ENE 20:43:07 10° SE
H-2A R/B 2.9 20:36:38 10° SSE 20:40:26 57° ENE 20:44:18 10° N
Cosmos 1980 Rocket 3.1 20:36:23 10° SSE 20:40:54 25° ESE 20:45:27 10° NE
Lacrosse 5 2.8 20:36:29 10° NNW 20:41:05 34° NE 20:44:53 14° E
Cosmos 2369 4.0 20:36:03 10° SSW 20:41:42 76° WNW 20:47:26 10° NNE
Resurs 1-3 4.2 20:37:44 10° S 20:42:04 61° W 20:46:25 10° NNW
Cosmos 2123 Rocket 4.0 20:36:54 10° N 20:43:07 86° E 20:49:17 10° S
Cosmos 1975 2.8 20:44:41 10° S 20:48:44 64° E 20:52:49 10° NNE
EO 1 Delta rocket 4.0 20:44:24 10° NNE 20:49:11 78° E 20:54:50 10° S
ERS-1 Rocket 3.8 20:48:21 15° SE 20:51:52 33° ENE 20:56:19 10° N
Cosmos 2150 Rocket 4.4 20:47:52 10° N 20:52:47 44° ENE 20:56:30 17° SE
BREEZE-M TANK 4.0 20:40:38 10° WNW 20:54:58 60° N 20:58:04 17° E
Lacrosse 5 rocket 1.2 20:51:42 10° NW 20:55:23 67° SW 20:57:58 18° SSE
FENGYUN 3A 3.7 20:52:52 10° S 20:58:13 80° WSW 21:03:36 10° NNW
Cosmos 1656 3.6 20:55:12 10° SSW 21:00:50 88° ESE 21:06:26 10° NNE
CZ-2D R/B 3.6 20:59:00 10° S 21:02:50 65° W 21:06:43 10° NNW
Cosmos 1763 Rocket 4.2 20:59:08 10° SSE 21:03:30 29° E 21:07:51 10° NE
Resurs 01 Rocket 3.9 21:03:02 10° SSW 21:06:39 25° W 21:10:19 10° NW
CZ-4 DEB 3.1 21:07:23 34° ESE 21:08:09 41° ENE 21:11:09 10° N
Cosmos 1898 Rocket 3.5 21:03:40 10° NNW 21:08:57 66° ENE 21:12:34 20° SSE
Cosmos 1500 3.0 21:06:09 10° S 21:09:53 73° E 21:13:39 10° NNE
DELTA 2 R/B (1) 3.7 21:04:22 10° W 21:09:54 67° SSW 21:13:06 25° ESE
Cosmos 2227 Rocket 3.1 21:06:23 10° NW 21:11:49 49° WSW 21:17:12 10° S
Cosmos 1153 Rocket 4.5 21:06:19 10° S 21:12:31 89° W 21:18:41 10° N
Cosmos 2322 Rocket 4.0 21:16:55 14° ENE 21:16:55 14° ENE 21:18:06 10° ENE
Cosmos 1340 3.5 21:16:55 10° NNE 21:20:21 31° ENE 21:20:21 31° ENE
OAO 2 Rocket 3.5 21:15:53 10° W 21:20:48 56° S 21:22:50 33° ESE
Cosmos 468 Rocket 3.9 21:15:48 10° SSW 21:20:55 86° WNW 21:26:04 10° NNE
ALOS 3.8 21:21:42 10° SSW 21:25:59 36° W 21:30:18 10° NNW
Cosmos 1939 Rocket 3.0 21:25:01 39° SE 21:26:15 57° ENE 21:30:21 10° N
USA 186 3.5 21:23:44 10° SSW 21:26:30 29° W 21:29:07 10° NW
Cosmos 841 Rocket 3.8 21:23:26 19° SSE 21:26:50 43° ESE 21:31:47 10° NNE
Cosmos 2297 Rocket 2.9 21:21:27 10° NNW 21:26:55 51° WSW 21:32:06 11° S
Cosmos 2360 4.4 21:23:05 10° S 21:28:28 45° ESE 21:33:54 10° NE
Cosmos 1802 Rocket 4.0 21:22:30 10° S 21:28:46 61° E 21:35:06 10° NNE
OTV 4 2.8 21:28:18 10° WSW 21:30:01 15° SSW 21:30:01 15° SSW
Cosmos 1726 Rocket 4.0 21:30:19 39° E 21:30:19 39° E 21:34:25 10° NNE
Cosmos 1814 Rocket 4.1 21:27:14 10° SSW 21:32:34 81° WNW 21:37:55 10° NNE
Cosmos 972 Rocket 4.4 21:27:32 10° NNW 21:33:38 81° ENE 21:37:46 25° SSE
Cosmos 2016 Rocket 3.9 21:35:00 22° SSE 21:38:55 60° E 21:45:01 10° NNE
ASTEX 1 3.6 21:40:33 10° NNE 21:45:25 49° E 21:45:35 48° E
Cosmos 1825 Rocket 3.4 21:41:36 10° N 21:46:02 82° E 21:46:50 59° SSE
Cosmos 1743 3.0 21:48:12 34° SSW 21:49:46 66° W 21:53:41 10° N
Cosmos 2173 Rocket 4.1 21:44:45 10° S 21:51:07 79° W 21:57:29 10° N
Tiangong 1 2.3 21:48:35 10° WNW 21:50:47 41° WNW 21:50:47 41° WNW
BREEZE-M DEB (TANK) 2.9 21:51:14 10° NW 21:53:27 42° NNE 21:53:27 42° NNE
RESURS DK-1 2.6 21:51:00 10° NNW 21:55:05 60° WSW 21:55:34 55° SW
Cosmos 1953 Rocket 3.4 21:52:33 10° N 21:57:02 79° E 21:57:08 78° ESE
H-2A R/B 1.8 21:57:54 78° NNE 21:57:54 78° NNE 22:01:52 10° N
Cosmos 1697 Rocket 4.0 21:55:47 10° SW 22:01:04 40° WNW 22:06:23 10° N
Cosmos 967 Rocket 4.4 21:58:32 10° NNW 22:04:54 84° ENE 22:06:20 57° SE
Envisat 3.3 22:03:38 40° SSW 22:05:20 63° W 22:10:23 10° NNW
Cosmos 1864 Rocket 4.3 22:06:14 57° SE 22:07:14 66° E 22:13:18 10° NNE
Nimbus 7 Rocket 4.4 22:04:05 10° NNE 22:10:10 83° WNW 22:14:14 22° SSW
Cosmos 1937 Rocket 4.3 22:05:24 10° NNW 22:10:27 47° WSW 22:12:16 33° SSW
SL-16 R/B 3.0 22:13:10 36° NE 22:13:10 36° NE 22:16:45 10° NNE
NOAA 11 4.5 22:13:22 52° ENE 22:13:22 52° ENE 22:18:25 10° N
Cosmos 1758 Rocket 3.8 22:11:15 10° N 22:15:05 65° NW 22:15:05 65° NW
ARGOS 3.4 22:16:23 52° NE 22:16:23 52° NE 22:21:13 10° N
Tsikada Rocket 3.9 22:12:09 10° N 22:18:36 74° E 22:19:19 67° SE
deb Chang Zheng 4 4.4 22:16:39 10° N 22:20:58 51° WNW 22:21:50 44° WSW
SL-19 R/B 4.3 22:17:06 10° NNE 22:21:42 61° NE 22:21:42 61° NE
Lacrosse 5 2.6 22:19:21 10° NW 22:24:05 42° SW 22:24:05 42° SW
Cosmos 1980 Rocket 3.3 22:19:13 10° SW 22:24:36 43° WNW 22:30:01 10° N
H-2A R/B 3.4 22:27:30 26° NE 22:27:30 26° NE 22:30:15 10° N
MetOp-B 4.1 22:28:11 72° WSW 22:28:22 73° WSW 22:33:43 10° NNW
SPOT 5 3.3 22:28:37 59° WSW 22:28:41 59° WSW 22:33:27 10° NNW
CZ-3C R/B 4.3 22:20:30 10° W 22:35:20 20° SW 22:38:21 17° SSW
Meteor 2-17 Rocket 4.5 22:36:21 64° NE 22:36:21 64° NE 22:41:36 10° NNE
BREEZE-M DEB (TANK) 4.2 22:21:52 10° SW 22:36:23 89° SE 22:37:37 58° ENE
Cosmos 1816 Rocket 4.4 22:31:20 10° N 22:37:39 81° ENE 22:37:39 81° ENE
Cosmos 1725 Rocket 4.2 22:37:54 51° SW 22:39:21 67° W 22:45:35 10° N
Cosmos 2058 Rocket 4.3 22:41:00 41° WNW 22:41:00 41° WNW 22:44:54 10° N
SPOT 1/Viking Rocket 4.0 22:45:54 60° NW 22:45:54 60° NW 22:50:15 10° NNW
Cosmos 2263 Rocket 3.0 22:46:52 10° NNW 22:50:51 42° NNE 22:50:51 42° NNE
Terra 3.6 22:54:47 25° NNE 22:54:47 25° NNE 22:56:58 10° N
Cosmos 1125 Rocket 4.3 22:52:05 10° NNW 22:55:59 47° NW 22:55:59 47° NW
Meteor 2-5 Rocket 4.5 22:51:21 10° N 22:55:38 47° NNE 22:55:38 47° NNE
Cosmos 2322 Rocket 2.8 22:58:39 54° NW 22:58:39 54° NW 23:03:32 10° NNE
Cosmos 2233 Rocket 4.2 23:03:43 66° NW 23:03:43 66° NW 23:09:20 10° N
USA 215 3.7 23:06:05 52° NE 23:06:05 52° NE 23:12:21 10° NW
Milstar 3 Cent rocket 4.5 22:54:28 10° W 23:10:10 39° SSW 23:10:48 38° SSW
ATLAS CENTAUR R/B 4.5 23:29:28 54° E 23:29:28 54° E 23:46:07 10° NE
